Regional Weather Roundup
Issued by NWS

Home | Current Version | Previous Version | Graphics & Text | Print | Product List | Glossary On
Versions: 1 2 3 4 5 6 7 8 9 10 11 12 13 14 15 16 17 18 19 20 21 22 23 24 25 26 27 28 29 30 31 32 33 34 35 36 37 38 39 40 41 42 43 44 45 46 47 48 49 50
000
ASUS43 KMKX 062300
RWRWI

WISCONSIN REGIONAL WEATHER ROUNDUP
NATIONAL WEATHER SERVICE MILWAUKEE/SULLIVAN WI
600 PM CDT WED MAY 06 2015

NOTE: "FAIR" INDICATES FEW OR NO CLOUDS BELOW 12,000 FEET WITH NO
SIGNIFICANT WEATHER AND/OR OBSTRUCTIONS TO VISIBILITY.

WIZ001-002-006>008-014>016-023>028-070000-
NORTHWEST WISCONSIN

CITY           SKY/WX    TMP DP  RH WIND       PRES   REMARKS
SUPERIOR ARPT  CLOUDY    48  35  62 E13       29.99F
ASHLAND        MOSUNNY   58  46  64 N8        30.00F
HAYWARD        PTSUNNY   74  56  53 SE10G18   29.96F
SIREN          PTSUNNY   74  55  49 SE9G20    29.91F
CUMBERLAND     PTSUNNY   72  55  56 SE13G21   29.94F
RICE LAKE      PTSUNNY   74  56  52 E14G20    29.95F
CHETEK         PTSUNNY   74  59  58 E12G22    29.95F
LADYSMITH      PTSUNNY   72  58  61 SE10      30.01F
EAU CLAIRE     NOT AVBL
MENOMONIE      PTSUNNY   76  55  48 SE17G24   29.93F
NEW RICHMOND   CLOUDY    74  54  49 SE14G23   29.91S
OSCEOLA        CLOUDY    74  57  55 SE13G22   29.92S
$$

WIZ003>005-009-010-017-018-070000-
NORTH CENTRAL WISCONSIN

CITY           SKY/WX    TMP DP  RH WIND       PRES   REMARKS
MANITOWISH WTR PTSUNNY   68  59  71 SE7       30.04F
ARBOR VITAE    PTSUNNY   69  59  69 SE12      30.05F
WOODRUFF       PTSUNNY   69  59  69 SE12      30.05F
RHINELANDER    PTSUNNY   69  56  62 SE10      30.07F
EAGLE RIVER    PTSUNNY   69  52  54 SE9       30.06F
LAND O LAKES   PTSUNNY   73  53  50 S10       30.06F
PHILLIPS       PTSUNNY   67  58  72 SE7       30.03F
TOMAHAWK       PTSUNNY   67  58  71 SE7       30.06S
MEDFORD        PTSUNNY   71  58  62 SE8G16    30.03F
MERRILL        PTSUNNY  N/A N/A N/A SE10      30.06F
$$

WIZ029-030-035-036-043>047-070000-
CENTRAL WISCONSIN

CITY           SKY/WX    TMP DP  RH WIND       PRES   REMARKS
WAUSAU         MOSUNNY   73  57  57 SE13      30.03F
MOSINEE        SUNNY     72  57  60 SE12G17   30.06S
MARSHFIELD     PTSUNNY   74  58  57 SE13      30.02S
STEVENS POINT  MOSUNNY   70  57  63 SE12      30.06S
WAUPACA        MOSUNNY   73  58  59 E13       30.07F
WAUTOMA        NOT AVBL
WISC RAPIDS    PTSUNNY   74  57  55 SE13G20   30.04S
CAMP DOUGLAS   NOT AVBL
$$

WIZ011>013-019>022-031-037>040-048>050-070000-
NORTHEAST WISCONSIN

CITY           SKY/WX    TMP DP  RH WIND       PRES   REMARKS
ANTIGO         MOSUNNY   67  58  73 S12       30.08F
SHAWANO        MOSUNNY   71  58  63 E10       30.09S
OCONTO         PTSUNNY   60  52  74 E9        30.11S
STURGEON BAY   MOSUNNY   55  48  76 SE10      30.14F
GREEN BAY      MOSUNNY   69  57  65 SE9       30.09F
MANITOWOC      NOT AVBL
APPLETON       MOSUNNY   66  55  68 SE10      30.09F
CLINTONVILLE   MOSUNNY   70  55  60 SE9       30.08F
OSHKOSH        SUNNY     67  58  72 E7        30.07F
$$

WIZ032>034-041-042-053>061-070000-
SOUTHWEST WISCONSIN

CITY           SKY/WX    TMP DP  RH WIND       PRES   REMARKS
LA CROSSE      PTSUNNY   79  57  46 SE15G24   29.93F HX  80
SPARTA         PTSUNNY   79  54  42 SE17      29.98F
VIROQUA        PTSUNNY   75  57  53 SE14      29.99F
BOSCOBEL       MOSUNNY   80  57  45 VRB7      29.97F HX  80
PRAIRIE DU CHI PTSUNNY   78  55  44 SE10G22   29.95S
PLATTEVILLE    MOSUNNY   79  56  44 SE13      30.00S HX  80
$$

WIZ056-057-062-063-064-067-068-070000-
SOUTH CENTRAL WISCONSIN

CITY           SKY/WX    TMP DP  RH WIND       PRES   REMARKS
REEDSBURG      MOSUNNY   74  63  69 E10       30.02F
BARABOO/DELLS  NOT AVBL
LONE ROCK      NOT AVBL
MINERAL POINT  MOSUNNY   79  55  44 SE15      30.01F
MADISON        PTSUNNY   76  61  59 SE13      30.03F
MIDDLETON      CLOUDY    76  61  58 SE12      30.04F
WATERTOWN      MOSUNNY   71  59  66 E7        30.06F
MONROE         PTSUNNY   77  59  53 S12G18    30.03F
JANESVILLE     MOSUNNY   75  63  64 E12       30.04F
$$

WIZ051-052-058>065-066-070>072-070000-
SOUTHEAST WISCONSIN

CITY           SKY/WX    TMP DP  RH WIND       PRES   REMARKS
MILWAUKEE      PTSUNNY   59  52  77 E8        30.10F HAZE
WAUKESHA       PTSUNNY   63  54  72 E9        30.10F
MILWAUKEE/TIMM SUNNY     61  52  72 SE7       30.10F
RACINE         MOSUNNY   56  50  80 NE8       30.11F
BURLINGTON     SUNNY     66  57  73 E6        30.09S
KENOSHA        MOSUNNY   60  54  80 E9        30.09F
FOND DU LAC    MOSUNNY   71  58  63 SE15      30.07F
SHEBOYGAN      SUNNY     61  54  77 SE10      30.11F
WEST BEND      MOSUNNY   63  54  72 E8        30.10S
JUNEAU         MOSUNNY   69  59  71 E9        30.08S
$$

LSZ147-162-070000-
LAKE SUPERIOR

STATION/POSITION TIME  TEMP    WIND        PRES    WAVE
                       AIR SEA DIR/SP/G            HT/PER
                 (UTC) (F)     (DEG/KT/KT) (MB)    (FT/S)
W MID LAKE BUOY  2150   39 36   40/ 10/ 10 1018.2F   0
DEVILS ISLAND    2200   42      70/  9/ 11 1017.3F
PORT WING        2200   41      20/ 18/ 20 1015.9F
SAXON HARBOR     2200   49     310/  3/  3 1015.9F
$$

LMZ867-665-643>646-070000-
LAKE MICHIGAN

STATION/POSITION TIME  TEMP    WIND        PRES    WAVE
                       AIR SEA DIR/SP/G            HT/PER
                 (UTC) (F)     (DEG/KT/KT) (MB)    (FT/S)
CHAMBERS ISLAND  2200   53      30/  6/  8 1020.0F
NORTHPORT PIER   2200   47     130/  4/  6 1021.0F
SISTER BAY       2202   62      80/ 10/ 12   N/A
KEWAUNEE LAKESHO 2200   46      80/  1/  5 1019.8F
SHEBOYGAN LAKESH 2200   44      60/  7/  8 1020.9F
PORT WASHINGTON  2240   50      90/  2/  3 1020.7F
ATWATER BUOY     2200   44      40/  4/  6 1021.1F
MILWAUKEE LAKESH 2200   45      50/  4/  5   N/A
KENOSHA   LAKESH 2200   47      20/  6/  6 1019.6F
$$

TC  - TEMPERATURE IN CELSIUS
VSB - VISIBILITY IN STATUTE MILES
WCI - WIND CHILL INDEX
HX  - HEAT INDEX



USA.gov is the U.S. government's official web portal to all federal, state and local government web resources and services.